TimeCDT,TemperatureF,Dew PointF,Humidity,Sea Level PressureIn,VisibilityMPH,Wind Direction,Wind SpeedMPH,Gust SpeedMPH,PrecipitationIn,Events,Conditions,WindDirDegrees,DateUTC
12:13 AM,32.0,26.6,80,29.63,10.0,Calm,Calm,-,N/A,,Mostly Cloudy,0,2013-04-07 05:13:00
12:33 AM,32.0,26.6,80,29.64,10.0,Calm,Calm,-,N/A,,Mostly Cloudy,0,2013-04-07 05:33:00
12:53 AM,32.0,26.6,80,29.65,10.0,NNW,4.6,-,N/A,,Scattered Clouds,340,2013-04-07 05:53:00
1:13 AM,32.0,26.6,80,29.65,10.0,NNW,5.8,-,N/A,,Scattered Clouds,330,2013-04-07 06:13:00
1:33 AM,32.0,26.6,80,29.66,10.0,NNW,3.5,-,N/A,,Mostly Cloudy,340,2013-04-07 06:33:00
1:53 AM,30.2,26.6,86,29.67,10.0,NNW,3.5,-,N/A,,Scattered Clouds,340,2013-04-07 06:53:00
2:13 AM,30.2,26.6,86,29.68,10.0,North,3.5,-,N/A,,Clear,360,2013-04-07 07:13:00
2:33 AM,30.2,26.6,86,29.69,10.0,Calm,Calm,-,N/A,,Scattered Clouds,0,2013-04-07 07:33:00
2:53 AM,30.2,26.6,86,29.69,10.0,Calm,Calm,-,N/A,,Scattered Clouds,0,2013-04-07 07:53:00
3:13 AM,30.2,24.8,80,29.70,10.0,Calm,Calm,-,N/A,,Clear,0,2013-04-07 08:13:00
3:33 AM,30.2,24.8,80,29.70,10.0,Calm,Calm,-,N/A,,Scattered Clouds,0,2013-04-07 08:33:00
3:53 AM,28.4,24.8,86,29.70,10.0,NNW,3.5,-,N/A,,Clear,340,2013-04-07 08:53:00
4:13 AM,30.2,24.8,80,29.71,10.0,Calm,Calm,-,N/A,,Scattered Clouds,0,2013-04-07 09:13:00
4:33 AM,30.2,24.8,80,29.71,10.0,Calm,Calm,-,N/A,,Scattered Clouds,0,2013-04-07 09:33:00
4:53 AM,30.2,26.6,86,29.71,10.0,Calm,Calm,-,N/A,,Scattered Clouds,0,2013-04-07 09:53:00
5:13 AM,30.2,26.6,86,29.72,10.0,Calm,Calm,-,N/A,,Scattered Clouds,0,2013-04-07 10:13:00
5:33 AM,30.2,26.6,86,29.73,10.0,Calm,Calm,-,N/A,,Scattered Clouds,0,2013-04-07 10:33:00
5:53 AM,28.4,24.8,86,29.74,10.0,Calm,Calm,-,N/A,,Scattered Clouds,0,2013-04-07 10:53:00
6:13 AM,28.4,24.8,86,29.76,10.0,Calm,Calm,-,N/A,,Clear,0,2013-04-07 11:13:00
6:33 AM,28.4,24.8,86,29.77,10.0,Calm,Calm,-,N/A,,Scattered Clouds,0,2013-04-07 11:33:00
6:53 AM,28.4,24.8,86,29.78,10.0,Calm,Calm,-,N/A,,Mostly Cloudy,0,2013-04-07 11:53:00
7:13 AM,30.2,26.6,86,29.79,10.0,Calm,Calm,-,N/A,,Mostly Cloudy,0,2013-04-07 12:13:00
7:33 AM,30.2,26.6,86,29.80,10.0,Calm,Calm,-,N/A,,Clear,0,2013-04-07 12:33:00
7:53 AM,33.8,26.6,75,29.80,10.0,Calm,Calm,-,N/A,,Clear,0,2013-04-07 12:53:00
8:13 AM,37.4,26.6,65,29.81,10.0,Calm,Calm,-,N/A,,Clear,0,2013-04-07 13:13:00
8:33 AM,39.2,26.6,61,29.82,10.0,Calm,Calm,-,N/A,,Clear,0,2013-04-07 13:33:00
8:53 AM,44.6,28.4,53,29.83,10.0,Calm,Calm,-,N/A,,Clear,0,2013-04-07 13:53:00
9:13 AM,48.2,21.2,34,29.83,10.0,Calm,Calm,-,N/A,,Clear,0,2013-04-07 14:13:00
9:33 AM,44.6,24.8,46,29.83,10.0,Calm,Calm,-,N/A,,Clear,0,2013-04-07 14:33:00
9:53 AM,41.0,26.6,57,29.84,10.0,Calm,Calm,-,N/A,,Clear,0,2013-04-07 14:53:00
10:13 AM,37.4,26.6,65,29.85,10.0,Calm,Calm,-,N/A,,Clear,0,2013-04-07 15:13:00
10:33 AM,37.4,26.6,65,29.86,10.0,SW,4.6,-,N/A,,Clear,220,2013-04-07 15:33:00
10:53 AM,39.2,26.6,61,29.86,10.0,South,3.5,-,N/A,,Clear,170,2013-04-07 15:53:00
11:13 AM,37.4,24.8,60,29.87,10.0,South,5.8,-,N/A,,Clear,190,2013-04-07 16:13:00
11:33 AM,37.4,24.8,60,29.87,10.0,SSW,4.6,-,N/A,,Clear,200,2013-04-07 16:33:00
11:53 AM,37.4,24.8,60,29.87,10.0,Calm,Calm,-,N/A,,Clear,0,2013-04-07 16:53:00
12:13 PM,37.4,24.8,60,29.87,10.0,South,4.6,-,N/A,,Clear,190,2013-04-07 17:13:00
12:33 PM,39.2,23.0,52,29.88,10.0,South,5.8,-,N/A,,Clear,180,2013-04-07 17:33:00
12:53 PM,37.4,24.8,60,29.88,10.0,South,5.8,-,N/A,,Clear,190,2013-04-07 17:53:00
1:13 PM,37.4,24.8,60,29.89,10.0,South,9.2,-,N/A,,Clear,190,2013-04-07 18:13:00
1:33 PM,37.4,23.0,56,29.89,10.0,SSW,8.1,-,N/A,,Clear,210,2013-04-07 18:33:00
1:53 PM,37.4,24.8,60,29.88,10.0,Calm,Calm,-,N/A,,Clear,0,2013-04-07 18:53:00
2:13 PM,39.2,24.8,56,29.88,10.0,South,8.1,-,N/A,,Clear,190,2013-04-07 19:13:00
2:33 PM,39.2,24.8,56,29.88,10.0,SW,4.6,-,N/A,,Clear,230,2013-04-07 19:33:00
2:53 PM,39.2,24.8,56,29.88,10.0,SW,5.8,-,N/A,,Clear,220,2013-04-07 19:53:00
3:13 PM,39.2,23.0,52,29.87,10.0,South,4.6,-,N/A,,Clear,190,2013-04-07 20:13:00
3:33 PM,41.0,23.0,49,29.87,10.0,Calm,Calm,-,N/A,,Clear,0,2013-04-07 20:33:00
3:53 PM,41.0,23.0,49,29.86,10.0,South,9.2,-,N/A,,Clear,180,2013-04-07 20:53:00
4:13 PM,39.2,24.8,56,29.86,10.0,SSW,11.5,-,N/A,,Clear,200,2013-04-07 21:13:00
4:33 PM,37.4,24.8,60,29.86,10.0,South,6.9,-,N/A,,Clear,190,2013-04-07 21:33:00
4:53 PM,37.4,24.8,60,29.86,10.0,South,6.9,-,N/A,,Clear,190,2013-04-07 21:53:00
5:13 PM,35.6,24.8,65,29.86,10.0,South,6.9,-,N/A,,Clear,190,2013-04-07 22:13:00
5:34 PM,35.6,24.8,65,29.86,10.0,SW,3.5,-,N/A,,Clear,220,2013-04-07 22:34:00
5:53 PM,35.6,24.8,65,29.86,10.0,Calm,Calm,-,N/A,,Clear,0,2013-04-07 22:53:00
6:13 PM,35.6,26.6,70,29.86,10.0,Calm,Calm,-,N/A,,Scattered Clouds,0,2013-04-07 23:13:00
6:33 PM,35.6,26.6,70,29.86,10.0,Calm,Calm,-,N/A,,Scattered Clouds,0,2013-04-07 23:33:00
6:53 PM,33.8,24.8,70,29.86,10.0,Calm,Calm,-,N/A,,Scattered Clouds,0,2013-04-07 23:53:00
7:13 PM,33.8,26.6,75,29.86,10.0,Calm,Calm,-,N/A,,Scattered Clouds,0,2013-04-08 00:13:00
7:33 PM,33.8,26.6,75,29.85,10.0,Calm,Calm,-,N/A,,Scattered Clouds,0,2013-04-08 00:33:00
7:53 PM,33.8,26.6,75,29.86,10.0,Calm,Calm,-,N/A,,Mostly Cloudy,0,2013-04-08 00:53:00
8:13 PM,32.0,24.8,75,29.86,10.0,Calm,Calm,-,N/A,,Scattered Clouds,0,2013-04-08 01:13:00
8:33 PM,32.0,24.8,75,29.87,10.0,Calm,Calm,-,N/A,,Mostly Cloudy,0,2013-04-08 01:33:00
8:53 PM,32.0,24.8,75,29.87,10.0,Calm,Calm,-,N/A,,Mostly Cloudy,0,2013-04-08 01:53:00
9:13 PM,32.0,24.8,75,29.87,10.0,Calm,Calm,-,N/A,,Mostly Cloudy,0,2013-04-08 02:13:00
9:33 PM,32.0,24.8,75,29.87,10.0,Calm,Calm,-,N/A,,Mostly Cloudy,0,2013-04-08 02:33:00
9:53 PM,32.0,24.8,75,29.88,10.0,Calm,Calm,-,N/A,,Mostly Cloudy,0,2013-04-08 02:53:00
10:13 PM,32.0,24.8,75,29.88,10.0,Calm,Calm,-,N/A,,Mostly Cloudy,0,2013-04-08 03:13:00
10:33 PM,32.0,26.6,80,29.88,10.0,Calm,Calm,-,N/A,,Scattered Clouds,0,2013-04-08 03:33:00
10:53 PM,30.2,26.6,86,29.87,10.0,Calm,Calm,-,N/A,,Clear,0,2013-04-08 03:53:00
11:13 PM,30.2,26.6,86,29.86,10.0,Calm,Calm,-,N/A,,Scattered Clouds,0,2013-04-08 04:13:00
11:33 PM,30.2,26.6,86,29.86,10.0,Calm,Calm,-,N/A,,Clear,0,2013-04-08 04:33:00
11:53 PM,30.2,26.6,86,29.85,10.0,Calm,Calm,-,N/A,,Clear,0,2013-04-08 04:53:00